Kenosha, WI

8:27 AM CDT on April 30, 2017 (GMT -0500)
Kenosha Regional

Weather History for KENW - January, 2014

Change the Weather History Date:

Tuesday, January 21, 2014

  Actual Average Record
Temperature  
Mean Temperature 0 °F -  
Max Temperature 7 °F 31 °F 57 °F (2017)
Min Temperature -6 °F 18 °F -23 °F (1984)
Degree Days  
Heating Degree Days 64    
Moisture  
Dew Point -8 °F    
Average Humidity 63    
Maximum Humidity 76    
Minimum Humidity 53    
Precipitation  
Precipitation 0.00 in - - ()
Sea Level Pressure  
Sea Level Pressure 30.27 in    
Wind  
Wind Speed 13 mph (NW)    
Max Wind Speed 18 mph    
Max Gust Speed 30 mph    
Visibility 10 miles    
Events      
Averages and records for this station are not official NWS values.
T = Trace of Precipitation, MM = Missing Value Source: NWS Daily Summary

Daily Weather History Graph

Daily Weather History Graph

Search for Another Location

Airport or City:

Trip Planner

Search our weather history database for the weather conditions in past years. The results will help you decide how hot, cold, wet, or windy it might be!

Date:

Astronomy

Jan. 21, 2014 Rise Set
Actual Time 7:15 AM CST 4:51 PM CST
Civil Twilight 6:44 AM CST 5:21 PM CST
Nautical Twilight 6:10 AM CST 5:56 PM CST
Astronomical Twilight 5:36 AM CST 6:29 PM CST
Moon 10:32 PM CST (1/21) 9:37 AM CST (1/21)
Length of Visible Light 10h 37m
Length of Day
9h 35m
Waning Gibbous, 74% of the Moon is Illuminated
Jan 21
Waning Gibbous
Jan 23
Last Quarter
Jan 30
New
Feb 6
First Quarter
Feb 14
Full

Hourly Weather History & Observations

Time (CST) Temp. Windchill Dew Point Humidity Pressure Visibility Wind Dir Wind Speed Gust Speed Precip Events Conditions
12:53 AM 7.0 °F -11.0 °F -2.0 °F 67% 30.17 in 6.0 mi North 16.1 mph 29.9 mph 0.00 in   Haze
1:53 AM 5.0 °F -14.7 °F -5.1 °F 63% 30.19 in 8.0 mi North 18.4 mph 26.5 mph N/A   Overcast
2:53 AM 3.9 °F -15.6 °F -8.0 °F 58% 30.22 in 10.0 mi NNW 17.3 mph 28.8 mph N/A   Mostly Cloudy
3:53 AM 3.0 °F -16.7 °F -9.0 °F 57% 30.26 in 10.0 mi NNW 17.3 mph 25.3 mph N/A   Mostly Cloudy
4:10 AM 3.0 °F -14.8 °F -9.0 °F 57% 30.22 in 10.0 mi NNW 13.8 mph 23.0 mph N/A   Overcast
4:53 AM 1.9 °F -16.2 °F -9.0 °F 60% 30.28 in 10.0 mi NNW 13.8 mph 23.0 mph N/A   Mostly Cloudy
5:18 AM 1.9 °F -15.5 °F -9.0 °F 60% 30.24 in 10.0 mi NNW 12.7 mph - N/A   Scattered Clouds
5:53 AM 1.0 °F -18.7 °F -9.0 °F 63% 30.30 in 10.0 mi NNW 16.1 mph - N/A   Partly Cloudy
6:53 AM -0.0 °F -18.7 °F -9.0 °F 66% 30.31 in 10.0 mi NNW 13.8 mph - N/A   Clear
7:53 AM -0.0 °F -20.1 °F -9.0 °F 66% 30.33 in 10.0 mi NNW 16.1 mph - N/A   Partly Cloudy
8:53 AM -0.0 °F -18.7 °F -9.0 °F 66% 30.35 in 10.0 mi NW 13.8 mph - N/A   Clear
9:53 AM 1.9 °F -15.5 °F -8.0 °F 63% 30.35 in 10.0 mi NNW 12.7 mph - N/A   Clear
10:53 AM 3.9 °F -12.2 °F -7.1 °F 60% 30.35 in 10.0 mi NNW 11.5 mph - N/A   Clear
11:53 AM 5.0 °F -10.0 °F -6.0 °F 61% 30.33 in 10.0 mi NW 10.4 mph - N/A   Clear
12:53 PM 7.0 °F -6.6 °F -6.0 °F 55% 30.31 in 10.0 mi NNW 9.2 mph - N/A   Clear
1:53 PM 7.0 °F -8.3 °F -7.1 °F 53% 30.29 in 10.0 mi WNW 11.5 mph - N/A   Clear
2:53 PM 7.0 °F -5.7 °F -7.1 °F 53% 30.28 in 10.0 mi West 8.1 mph - N/A   Clear
3:53 PM 7.0 °F -6.6 °F -7.1 °F 53% 30.29 in 10.0 mi WNW 9.2 mph - N/A   Clear
4:53 PM 5.0 °F -5.6 °F -8.0 °F 55% 30.29 in 10.0 mi NW 5.8 mph - N/A   Clear
5:53 PM 1.9 °F -5.6 °F -8.0 °F 63% 30.27 in 10.0 mi West 3.5 mph - N/A   Clear
6:53 PM -2.0 °F -12.2 °F -9.9 °F 69% 30.27 in 10.0 mi West 4.6 mph - N/A   Clear
7:53 PM -2.9 °F -15.0 °F -9.9 °F 72% 30.26 in 10.0 mi West 5.8 mph - N/A   Clear
8:53 PM -2.0 °F -12.2 °F -9.9 °F 69% 30.25 in 10.0 mi WNW 4.6 mph - N/A   Clear
9:53 PM -5.1 °F -13.6 °F -11.0 °F 76% 30.24 in 10.0 mi West 3.5 mph - N/A   Clear
10:53 PM -6.0 °F -20.1 °F -11.9 °F 75% 30.24 in 10.0 mi West 6.9 mph - N/A   Scattered Clouds
11:53 PM -2.0 °F -12.2 °F -9.0 °F 72% 30.22 in 10.0 mi West 4.6 mph - N/A   Overcast